User: anonymous   Login
Location: Newark
(34.9471°N, 136.1778°E)
Time: 21:39:28
(UTC+00:00)
Language:

XW-2C - Orbit

View from above orbital plane
View from above orbital plane
View from above satellite
View from above satellite

Ground track
Ground track

The orbit data is extracted from the following two-line orbital elements,

1 40906U 15049H   21023.61021851  .00000886  00000-0  48926-4 0  9995
2 40906  97.4831  27.8309 0014137 337.1113 143.9856 15.16440523295617
Epoch (UTC): 23 January 2021 14:38:42
Eccentricity: 0.0014137
inclination: 97.4831°
perigee height: 507 km
apogee height: 526 km
right ascension of ascending node: 27.8309°
argument of perigee: 337.1113°
revolutions per day: 15.16440523
mean anomaly at epoch: 143.9856°
orbit number at epoch: 29561

The dashed part of the orbit path shows where the satellite is in the earth's shadow,  

DLR